Tracking 28790 objects as of 19-Apr-2024
HD Live streaming from Space Station
objects crossing your sky now

NOAA 16 DEB

Track NOAA 16 DEB now!
10-day predictions


NORAD ID: 41126
Int'l Code: 2000-055BH
Perigee: 826.3 km
Apogee: 935.8 km
Inclination: 98.8 °
Period: 102.4 minutes
Semi major axis: 7252 km
RCS: Unknown
Launch date: September 21, 2000
Source: United States (US)
Launch site: AIR FORCE WESTERN TEST RANGE (AFWTR)

Note: This is SATELLITE DEBRIS
Your satellite tracking list
Your tracking list is empty




NASA's NSSDC Master Catalog

Two Line Element Set (TLE):
1 41126U 00055BH  24109.25423510  .00008442  00000-0  50610-2 0  9994
2 41126  98.7677 120.4664 0075519  73.4880 287.4569 14.05758405427979
Source of the keplerian elements: AFSPC